This demonstration page uses our WeatherBlox Daily Observations layout. Learn more.

Left ArrowRight Arrow

Hourly Observations for November 7, 2016

Temp ( °F °C ) Dew Point ( °F °C ) Humidity (%) Winds ( mph kmh ) Pressure ( in mb ) Visibility ( mi km ) Precip ( " mm )
12:53 am 00:53 Clear 47 8.3 43 6.1 86 86 NNE 3 6 30.29 1026 10 16 0.00 0.00
1:53 am 01:53 Clear 48 8.9 43 6.1 83 83 NNE 3 6 30.30 1026 10 16 0.00 0.00
2:53 am 02:53 Clear 46 7.8 43 6.1 89 89 Calm 30.30 1026 10 16 0.00 0.00
3:53 am 03:53 Clear 46 7.8 42 5.6 86 86 Calm 30.30 1026 10 16 0.00 0.00
4:53 am 04:53 Clear 44 6.7 41 5 89 89 Calm 30.32 1027 10 16 0.00 0.00
5:53 am 05:53 Clear 45 7.2 41 5 86 86 Calm 30.34 1028 10 16 0.00 0.00
6:53 am 06:53 Clear 42 5.6 39 3.9 89 89 Calm 30.35 1028 10 16 0.00 0.00
7:53 am 07:53 Sunny 44 6.7 40 4.4 85 85 NE 5 7 30.38 1029 10 16 0.00 0.00
8:53 am 08:53 Sunny 53 11.7 44 6.7 72 72 NNE 6 9 30.39 1029 10 16 0.00 0.00
9:53 am 09:53 Sunny 62 16.7 41 5 46 46 ENE 9 15 30.39 1029 10 16 0.00 0.00
10:53 am 10:53 Sunny 66 18.9 40 4.4 39 39 E 8 13 30.39 1029 10 16 0.00 0.00
11:53 am 11:53 Sunny 68 20 38 3.3 33 33 E 9 15 30.37 1029 10 16 0.00 0.00
12:53 pm 12:53 Sunny 70 21.1 33 0.6 26 26 SE 9 15 30.34 1028 10 16 0.00 0.00
1:53 pm 13:53 Sunny 71 21.7 34 1.1 26 26 ENE 7 11 30.32 1027 10 16 0.00 0.00
2:53 pm 14:53 Sunny 72 22.2 34 1.1 25 25 VRB 7 11 30.30 1026 10 16 0.00 0.00
3:53 pm 15:53 Sunny 71 21.7 34 1.1 26 26 E 8 13 30.29 1026 10 16 0.00 0.00
4:53 pm 16:53 Sunny 71 21.7 34 1.1 26 26 E 6 9 30.29 1026 10 16 0.00 0.00
5:53 pm 17:53 Clear 67 19.4 33 0.6 28 28 ESE 3 6 30.30 1026 10 16 0.00 0.00
6:53 pm 18:53 Clear 57 13.9 37 2.8 47 47 Calm 30.32 1027 10 16 0.00 0.00
7:53 pm 19:53 Clear 51 10.6 40 4.4 66 66 Calm 30.33 1027 10 16 0.00 0.00
8:53 pm 20:53 Clear 50 10 40 4.4 68 68 Calm 30.33 1027 10 16 0.00 0.00
9:53 pm 21:53 Clear 48 8.9 39 3.9 71 71 Calm 30.33 1027 10 16 0.00 0.00
10:53 pm 22:53 Clear 46 7.8 40 4.4 79 79 Calm 30.33 1027 10 16 0.00 0.00
11:53 pm 23:53 Clear 46 7.8 39 3.9 77 77 Calm 30.33 1027 10 16 0.00 0.00

Powered by AerisWeather